Flag for Czech Republic Weather past 2 weeks in Ostrava, Czech Republic

Now
38 °F

Passing clouds.


Feels Like: 33 °F
Forecast: 38 / 44 °F
Wind: 7 mph from Southwest

Location: Ostrava / Mosnov

Current Time: Dec 21, 2014 at 3:12:20 AM

Latest Report: Dec 21, 2014 at 2:00 AM


Visibility: 13 mi

Pressure: 30.03 "Hg

Humidity: 81%

Dew point: 33 °F

Location of OstravaLocation

Historic Weather in Ostrava — Graph

°F

Ostrava temperature yesterday

Maximum temperature yesterday: 50 °F (at 12:00 AM)
Minimum temperature yesterday: 39 °F (at 8:00 AM)
Average temperature yesterday: 43 °F

Past Weeks' High & Low Weather Summary

 TemperatureHumidityPressure
High53 °F (Dec 19, 3:00 PM)99% (Dec 9, 4:00 AM)30.44 "Hg (Dec 9, 4:00 AM)
Low26 °F (Dec 10, 3:00 AM)50% (Dec 12, 3:00 PM)29.81 "Hg (Dec 12, 11:00 PM)
Average39 °F85%30.05 "Hg
* Reported Dec 6 1:00 AM — Dec 21 1:00 AM, Ostrava, Weather by CustomWeather, © 2014

Note: Actual official high and low records may vary slightly from our data, if they occured in-between our weather recording intervals... More about our weather records

Advertising

Ostrava weather history for previous 24 hours

 ConditionsComfort  
Time TempWeatherWind HumidityBarometerVisibility
1:00 AM
Dec 21
38 °FOvercast.8 mph81%30.01 "Hg12 mi
12:00 AM38 °FOvercast.12 mph86%30.00 "Hg12 mi
11:00 PM
Dec 20
40 °FOvercast.10 mph80%29.98 "Hg12 mi
9:00 PM40 °FOvercast.13 mph77%29.97 "Hg12 mi
8:00 PM41 °FOvercast.13 mph68%29.97 "Hg12 mi
7:00 PM42 °FOvercast.12 mph66%29.99 "Hg12 mi
6:00 PM42 °FOvercast.12 mph62%29.98 "Hg12 mi
5:00 PM43 °FOvercast.12 mph61%29.98 "Hg12 mi
4:10 PM42 °FOvercast.9 mph67%30.00 "Hg19 mi
3:00 PM42 °FOvercast.10 mph66%30.02 "Hg31 mi
2:00 PM44 °FPartly sunny.7 mph60%30.05 "Hg31 mi
1:00 PM43 °FPartly sunny.9 mph62%30.07 "Hg31 mi
12:00 PM42 °FPartly sunny.10 mph68%30.11 "Hg25 mi
11:00 AM42 °FPartly sunny.9 mph70%30.14 "Hg25 mi
10:00 AM41 °FScattered clouds.10 mph65%30.13 "Hg25 mi
9:00 AM41 °FPartly sunny.7 mph69%30.12 "Hg25 mi
8:00 AM39 °FPassing clouds.10 mph74%30.12 "Hg25 mi
7:00 AM40 °FPassing clouds.9 mph72%30.09 "Hg19 mi
6:00 AM42 °FPassing clouds.8 mph70%30.07 "Hg19 mi
5:00 AM44 °FOvercast.7 mph80%30.04 "Hg19 mi
4:00 AM44 °FOvercast.7 mph81%30.01 "Hg16 mi
3:00 AM45 °FOvercast.7 mph80%30.00 "Hg16 mi
Weather by CustomWeather, © 2014

See weather overviewHow to use our weather pages